| time (UTC) | temp F | wind direction | speed MPH | gust MPH | rain 1hr in | rain 24hr in | rain mn in | humidity % | barometer mb |
| 20260503013032 | 69 | 104 | 0.0 | 0.0 | 0.00 | 0.00 | 0.00 | 49 | 1020.1 |
| 20260503011526 | 70 | 104 | 0.0 | 0.0 | 0.00 | 0.00 | 0.00 | 47 | 1019.9 |
| 20260503010024 | 70 | 105 | 0.0 | 3.0 | 0.00 | 0.00 | 0.00 | 46 | 1019.9 |
| 20260503004529 | 71 | 96 | 0.0 | 3.0 | 0.00 | 0.00 | 0.00 | 45 | 1019.8 |
| 20260503003023 | 72 | 42 | 1.0 | 4.0 | 0.00 | 0.00 | 0.00 | 45 | 1019.7 |
| 20260503001525 | 72 | 45 | 0.0 | 3.0 | 0.00 | 0.00 | 0.00 | 44 | 1019.6 |
| 20260503000022 | 72 | 41 | 0.0 | 4.0 | 0.00 | 0.00 | 0.00 | 43 | 1019.6 |
| 20260502234521 | 72 | 44 | 0.0 | 5.0 | 0.00 | 0.00 | 0.00 | 42 | 1019.6 |
| 20260502233020 | 73 | 53 | 1.0 | 5.0 | 0.00 | 0.00 | 0.00 | 43 | 1019.5 |
| 20260502231521 | 73 | 17 | 4.0 | 8.0 | 0.00 | 0.00 | 0.00 | 42 | 1019.5 |
| 20260502230020 | 73 | 31 | 3.0 | 6.0 | 0.00 | 0.00 | 0.00 | 43 | 1019.5 |
| 20260502224523 | 73 | 23 | 3.0 | 13.0 | 0.00 | 0.00 | 0.00 | 41 | 1019.5 |
| 20260502223018 | 73 | 39 | 5.0 | 9.0 | 0.00 | 0.00 | 0.00 | 40 | 1019.6 |
| 20260502221518 | 73 | 42 | 3.0 | 10.0 | 0.00 | 0.00 | 0.00 | 41 | 1019.7 |
| 20260502220017 | 73 | 69 | 4.0 | 9.0 | 0.00 | 0.00 | 0.00 | 39 | 1019.7 |
| 20260502214516 | 73 | 105 | 2.0 | 12.0 | 0.00 | 0.00 | 0.00 | 39 | 1019.8 |
| 20260502213014 | 73 | 44 | 3.0 | 12.0 | 0.00 | 0.00 | 0.00 | 38 | 1020.0 |
| 20260502211529 | 74 | 32 | 0.0 | 9.0 | 0.00 | 0.00 | 0.00 | 38 | 1020.1 |
| 20260502210016 | 73 | 42 | 6.0 | 14.0 | 0.00 | 0.00 | 0.00 | 40 | 1020.4 |
| 20260502204513 | 73 | 43 | 3.0 | 7.0 | 0.00 | 0.00 | 0.00 | 42 | 1020.6 |
| 20260502203014 | 74 | 94 | 4.0 | 10.0 | 0.00 | 0.00 | 0.00 | 41 | 1020.7 |
| 20260502201510 | 73 | 86 | 2.0 | 9.0 | 0.00 | 0.00 | 0.00 | 42 | 1021.0 |
| 20260502200008 | 73 | 20 | 4.0 | 12.0 | 0.00 | 0.00 | 0.00 | 43 | 1021.2 |
| 20260502194508 | 73 | 84 | 4.0 | 10.0 | 0.00 | 0.00 | 0.00 | 42 | 1021.2 |
| 20260502193005 | 72 | 108 | 5.0 | 12.0 | 0.00 | 0.00 | 0.00 | 43 | 1021.3 |
| 20260502191505 | 72 | 134 | 3.0 | 10.0 | 0.00 | 0.00 | 0.00 | 45 | 1021.3 |
| 20260502190004 | 72 | 30 | 4.0 | 10.0 | 0.00 | 0.00 | 0.00 | 47 | 1021.4 |
| 20260502184503 | 71 | 99 | 1.0 | 11.0 | 0.00 | 0.00 | 0.00 | 47 | 1021.5 |
| 20260502183109 | 70 | 68 | 3.0 | 10.0 | 0.00 | 0.00 | 0.00 | 50 | 1021.7 |
| 20260502181559 | 71 | 53 | 2.0 | 9.0 | 0.00 | 0.00 | 0.00 | 50 | 1022.0 |
| 20260502163054 | 67 | 39 | 1.0 | 7.0 | 0.00 | 0.00 | 0.00 | 60 | 1023.1 |
| 20260502161547 | 67 | 42 | 0.0 | 5.0 | 0.00 | 0.00 | 0.00 | 61 | 1023.1 |
| 20260502151546 | 63 | 51 | 2.0 | 9.0 | 0.00 | 0.00 | 0.00 | 68 | 1023.2 |
| 20260502123057 | 0 | 0.0 | 0.0 | 0.00 | 0.00 | 0.00 | 1021.4 | ||
| 20260502121552 | 0 | 0.0 | 0.0 | 0.00 | 0.00 | 0.00 | 1021.1 | ||
| 20260502114556 | 0 | 0.0 | 0.0 | 0.00 | 0.00 | 0.00 | 1020.6 | ||
| 20260502113041 | 50 | 33 | 0.0 | 0.0 | 0.00 | 0.00 | 0.00 | 19 | 1020.6 |
| 20260502111537 | 50 | 33 | 0.0 | 2.0 | 0.00 | 0.00 | 0.00 | 19 | 1020.3 |
| 20260502110038 | 50 | 32 | 0.0 | 0.0 | 0.00 | 0.00 | 0.00 | 19 | 1020.3 |
| 20260502104539 | 50 | 32 | 0.0 | 0.0 | 0.00 | 0.00 | 0.00 | 20 | 1020.2 |
| 20260502103034 | 50 | 32 | 0.0 | 1.0 | 0.00 | 0.00 | 0.00 | 20 | 1019.9 |
| 20260502101544 | 50 | 32 | 0.0 | 2.0 | 0.00 | 0.00 | 0.00 | 20 | 1019.5 |
| 20260502091520 | 51 | 32 | 1.0 | 6.0 | 0.00 | 0.00 | 0.00 | 19 | 1018.8 |
| 20260502071510 | 52 | 34 | 0.0 | 4.0 | 0.00 | 0.00 | 0.00 | 20 | 1018.3 |
| 20260502070012 | 52 | 35 | 1.0 | 5.0 | 0.00 | 0.00 | 0.00 | 19 | 1018.2 |
| 20260502064511 | 52 | 28 | 1.0 | 8.0 | 0.00 | 0.00 | 0.00 | 19 | 1018.1 |
| 20260502063007 | 52 | 24 | 0.0 | 6.0 | 0.00 | 0.00 | 0.00 | 20 | 1018.4 |
| 20260502061506 | 53 | 35 | 1.0 | 4.0 | 0.00 | 0.00 | 0.00 | 20 | 1018.6 |
| 20260502060010 | 53 | 34 | 0.0 | 3.0 | 0.00 | 0.00 | 0.00 | 22 | 1018.5 |
| 20260502054504 | 53 | 31 | 0.0 | 4.0 | 0.00 | 0.00 | 0.00 | 23 | 1018.5 |
| 20260502053002 | 53 | 53 | 0.0 | 5.0 | 0.00 | 0.00 | 0.00 | 23 | 1018.4 |
| 20260502051501 | 53 | 37 | 1.0 | 4.0 | 0.00 | 0.00 | 0.00 | 24 | 1018.3 |
| 20260502050104 | 53 | 29 | 1.0 | 5.0 | 0.00 | 0.00 | 0.00 | 25 | 1018.1 |
| 20260502044554 | 53 | 29 | 1.0 | 4.0 | 0.00 | 0.00 | 0.00 | 27 | 1018.2 |
| 20260502043054 | 54 | 27 | 0.0 | 5.0 | 0.00 | 0.00 | 0.00 | 28 | 1018.3 |
| 20260502041545 | 54 | 34 | 2.0 | 6.0 | 0.00 | 0.00 | 0.00 | 28 | 1018.3 |
| 20260502040052 | 54 | 37 | 2.0 | 9.0 | 0.00 | 0.00 | 0.00 | 28 | 1018.1 |
| 20260502034536 | 54 | 26 | 2.0 | 8.0 | 0.00 | 0.00 | 0.00 | 28 | 1018.2 |
| 20260502033031 | 54 | 23 | 6.0 | 10.0 | 0.00 | 0.00 | 0.00 | 25 | 1018.2 |
| 20260502031527 | 54 | 47 | 5.0 | 13.0 | 0.00 | 0.00 | 0.00 | 20 | 1017.9 |
| 20260502030023 | 54 | 28 | 4.0 | 11.0 | 0.00 | 0.00 | 0.00 | 16 | 1017.6 |
| 20260502024518 | 53 | 52 | 4.0 | 10.0 | 0.00 | 0.00 | 0.00 | 13 | 1017.5 |
| 20260502023013 | 53 | 17 | 3.0 | 10.0 | 0.00 | 0.00 | 0.00 | 10 | 1017.2 |
| 20260502021509 | 53 | 42 | 3.0 | 8.0 | 0.00 | 0.00 | 0.00 | 9 | 1016.9 |
| 20260502020005 | 53 | 34 | 5.0 | 11.0 | 0.00 | 0.00 | 0.00 | 7 | 1016.8 |
| 20260502014600 | 53 | 49 | 5.0 | 15.0 | 0.00 | 0.00 | 0.00 | 6 | 1016.6 |